This is the latest recevied weather packets stored in our database for station/object EA7URS-13. If no packets are shown the sender has not sent any weather packets the latest 10 day(s).
| Time | Temp. | Humidity | Pressure | Rain* | Wind** | Luminosity | Snow |
|---|---|---|---|---|---|---|---|
| 1788188331 | 35.56° C | 23% | 1008.1 hPa | 0 mm | - | 440 W/m² | - |
| 1788188029 | 35.56° C | 24% | 1008.4 hPa | 0 mm | - | 464 W/m² | - |
| 1788187728 | 35.56° C | 24% | 1008.4 hPa | 0 mm | - | 464 W/m² | - |
| 1788187427 | 35.56° C | 25% | 1008.3 hPa | 0 mm | - | 489 W/m² | - |
| 1788187126 | 35.56° C | 25% | 1008.3 hPa | 0 mm | - | 489 W/m² | - |
| 1788186825 | 35.56° C | 24% | 1008.5 hPa | 0 mm | - | 513 W/m² | - |
| 1788186524 | 35.56° C | 24% | 1008.5 hPa | 0 mm | - | 513 W/m² | - |
| 1788186223 | 35.56° C | 23% | 1008.8 hPa | 0 mm | - | 536 W/m² | - |
| 1788185922 | 35.56° C | 23% | 1008.8 hPa | 0 mm | - | 536 W/m² | - |
| 1788185621 | 35° C | 23% | 1008.7 hPa | 0 mm | - | 562 W/m² | - |
| 1788185320 | 35° C | 23% | 1008.7 hPa | 0 mm | - | 562 W/m² | - |
| 1788185019 | 35° C | 25% | 1008.9 hPa | 0 mm | - | 581 W/m² | - |
| 1788184718 | 35° C | 25% | 1008.9 hPa | 0 mm | - | 581 W/m² | - |
| 1788184417 | 35° C | 26% | 1008.7 hPa | 0 mm | - | 592 W/m² | - |
| 1788184116 | 35° C | 26% | 1008.7 hPa | 0 mm | - | 592 W/m² | - |
| 1788183815 | 34.44° C | 26% | 1008.8 hPa | 0 mm | - | 612 W/m² | - |
| 1788183514 | 34.44° C | 26% | 1008.8 hPa | 0 mm | - | 612 W/m² | - |
| 1788183218 | 34.44° C | 26% | 1008.7 hPa | 0 mm | - | 633 W/m² | - |
| 1788182912 | 34.44° C | 26% | 1008.7 hPa | 0 mm | - | 633 W/m² | - |
| 1788182611 | 34.44° C | 26% | 1008.8 hPa | 0 mm | - | 647 W/m² | - |
| 1788182310 | 34.44° C | 26% | 1008.8 hPa | 0 mm | - | 647 W/m² | - |
| 1788182009 | 35° C | 26% | 1009 hPa | 0 mm | - | 657 W/m² | - |
| 1788181708 | 35° C | 26% | 1009 hPa | 0 mm | - | 657 W/m² | - |
| 1788181406 | 35° C | 27% | 1009.1 hPa | 0 mm | - | 669 W/m² | - |
| 1788181105 | 35° C | 27% | 1009.1 hPa | 0 mm | - | 669 W/m² | - |
* Rain latest hour (hover to see other rain measurements)
** Current wind speed in m/s (hover to see current wind gust speed)